Time,TemperatureF,DewpointF,PressureIn,WindDirection,WindDirectionDegrees,WindSpeedMPH,WindSpeedGustMPH,Humidity,HourlyPrecipIn,Conditions,Clouds,dailyrainin,SoftwareType,DateUTC
2013-02-07 00:02:00,13.0,-12.0,-100.00,NNW,335,6.0,14.0,30,0.00,,,-99.99,,2013-02-07 05:02:00,
2013-02-07 00:12:00,13.0,-11.0,-100.00,NNW,345,6.0,11.0,32,0.00,,,-99.99,,2013-02-07 05:12:00,
2013-02-07 00:21:00,13.0,-11.0,-100.00,NNW,345,6.0,11.0,32,0.00,,,-99.99,,2013-02-07 05:21:00,
2013-02-07 00:32:00,13.0,-11.0,-100.00,NNW,345,7.0,12.0,32,0.00,,,-99.99,,2013-02-07 05:32:00,
2013-02-07 00:42:00,13.0,-11.0,-100.00,NNW,340,6.0,11.0,33,0.00,,,-99.99,,2013-02-07 05:42:00,
2013-02-07 00:52:00,13.0,-11.0,-100.00,North,355,7.0,13.0,33,0.00,,,-99.99,,2013-02-07 05:52:00,
2013-02-07 01:02:00,13.0,-11.0,-100.00,NNW,340,7.0,12.0,33,0.00,,,-99.99,,2013-02-07 06:02:00,
2013-02-07 01:11:00,13.0,-11.0,-100.00,NNW,335,7.0,12.0,33,0.00,,,-99.99,,2013-02-07 06:11:00,
2013-02-07 01:22:00,13.0,-11.0,-100.00,NNW,340,6.0,13.0,33,0.00,,,-99.99,,2013-02-07 06:22:00,
2013-02-07 01:32:00,12.0,-10.0,-100.00,NNW,335,6.0,11.0,34,0.00,,,-99.99,,2013-02-07 06:32:00,
2013-02-07 01:43:00,12.0,-10.0,-100.00,North,350,6.0,11.0,34,0.00,,,-99.99,,2013-02-07 06:43:00,
2013-02-07 01:52:00,12.0,-11.0,-100.00,NNW,340,7.0,16.0,34,0.00,,,-99.99,,2013-02-07 06:52:00,
2013-02-07 02:01:00,12.0,-11.0,-100.00,NNW,345,6.0,16.0,33,0.00,,,-99.99,,2013-02-07 07:01:00,
2013-02-07 02:11:00,12.0,-12.0,-100.00,North,350,7.0,18.0,33,0.00,,,-99.99,,2013-02-07 07:11:00,
2013-02-07 02:22:00,12.0,-11.0,-100.00,NNW,345,7.0,17.0,34,0.00,,,-99.99,,2013-02-07 07:22:00,
2013-02-07 02:32:00,11.0,-12.0,-100.00,NNW,335,7.0,13.0,34,0.00,,,-99.99,,2013-02-07 07:32:00,
2013-02-07 02:42:00,11.0,-11.0,-100.00,NNW,345,4.0,11.0,34,0.00,,,-99.99,,2013-02-07 07:42:00,
2013-02-07 02:52:00,11.0,-11.0,-100.00,NNW,340,6.0,13.0,35,0.00,,,-99.99,,2013-02-07 07:52:00,
2013-02-07 03:01:00,11.0,-11.0,-100.00,NNW,330,6.0,11.0,35,0.00,,,-99.99,,2013-02-07 08:01:00,
2013-02-07 03:11:00,11.0,-11.0,-100.00,North,0,4.0,15.0,36,0.00,,,-99.99,,2013-02-07 08:11:00,
2013-02-07 03:21:00,11.0,-11.0,-100.00,NW,315,6.0,15.0,36,0.00,,,-99.99,,2013-02-07 08:21:00,
2013-02-07 03:32:00,10.0,-11.0,-100.00,NNW,345,6.0,12.0,36,0.00,,,-99.99,,2013-02-07 08:32:00,
2013-02-07 03:42:00,11.0,-11.0,-100.00,NNW,345,10.0,13.0,36,0.00,,,-99.99,,2013-02-07 08:42:00,
2013-02-07 03:52:00,10.0,-11.0,-100.00,NNW,340,9.0,17.0,36,0.00,,,-99.99,,2013-02-07 08:52:00,
2013-02-07 04:02:00,10.0,-11.0,-100.00,NNW,330,9.0,15.0,36,0.00,,,-99.99,,2013-02-07 09:02:00,
2013-02-07 04:11:00,10.0,-11.0,-100.00,North,355,7.0,14.0,37,0.00,,,-99.99,,2013-02-07 09:11:00,
2013-02-07 04:21:00,10.0,-10.0,-100.00,NNW,330,7.0,14.0,38,0.00,,,-99.99,,2013-02-07 09:21:00,
2013-02-07 04:32:00,10.0,-11.0,-100.00,NNW,340,8.0,14.0,38,0.00,,,-99.99,,2013-02-07 09:32:00,
2013-02-07 04:41:00,10.0,-10.0,-100.00,NNW,340,7.0,14.0,39,0.00,,,-99.99,,2013-02-07 09:41:00,
2013-02-07 04:52:00,9.0,-10.0,-100.00,NW,325,7.0,12.0,39,0.00,,,-99.99,,2013-02-07 09:52:00,
2013-02-07 05:02:00,9.0,-10.0,-100.00,NNW,330,7.0,18.0,39,0.00,,,-99.99,,2013-02-07 10:02:00,
2013-02-07 05:11:00,9.0,-10.0,-100.00,NNW,340,9.0,16.0,39,0.00,,,-99.99,,2013-02-07 10:11:00,
2013-02-07 05:22:00,9.0,-11.0,-100.00,NNW,345,10.0,20.0,39,0.00,,,-99.99,,2013-02-07 10:22:00,
2013-02-07 05:32:00,9.0,-10.0,-100.00,NNW,335,10.0,17.0,40,0.00,,,-99.99,,2013-02-07 10:32:00,
2013-02-07 05:42:00,9.0,-10.0,-100.00,NNW,345,9.0,15.0,40,0.00,,,-99.99,,2013-02-07 10:42:00,
2013-02-07 05:51:00,8.0,-10.0,-100.00,NNW,345,7.0,13.0,41,0.00,,,-99.99,,2013-02-07 10:51:00,
2013-02-07 06:01:00,8.0,-10.0,-100.00,NNW,335,4.0,15.0,42,0.00,,,-99.99,,2013-02-07 11:01:00,
2013-02-07 06:23:00,8.0,-10.0,-100.00,NNW,330,5.0,15.0,43,0.00,,,-99.99,,2013-02-07 11:23:00,
2013-02-07 06:32:00,7.0,-10.0,-100.00,NNW,340,8.0,12.0,43,0.00,,,-99.99,,2013-02-07 11:32:00,
2013-02-07 06:44:00,7.0,-10.0,-100.00,NNW,345,6.0,10.0,44,0.00,,,-99.99,,2013-02-07 11:44:00,
2013-02-07 06:52:00,7.0,-9.0,-100.00,NNW,335,4.0,9.0,46,0.00,,,-99.99,,2013-02-07 11:52:00,
2013-02-07 07:02:00,7.0,-9.0,-100.00,NNW,345,4.0,7.0,46,0.00,,,-99.99,,2013-02-07 12:02:00,
2013-02-07 07:11:00,7.0,-9.0,-100.00,NNW,330,4.0,8.0,47,0.00,,,-99.99,,2013-02-07 12:11:00,
2013-02-07 07:22:00,7.0,-9.0,-100.00,NNW,340,2.0,7.0,47,0.00,,,-99.99,,2013-02-07 12:22:00,
2013-02-07 07:33:00,6.0,-9.0,-100.00,NNW,340,2.0,4.0,48,0.00,,,-99.99,,2013-02-07 12:33:00,
2013-02-07 07:42:00,7.0,-9.0,-100.00,NNW,335,2.0,4.0,48,0.00,,,-99.99,,2013-02-07 12:42:00,
2013-02-07 07:52:00,7.0,-9.0,-100.00,NNW,340,4.0,6.0,48,0.00,,,-99.99,,2013-02-07 12:52:00,
2013-02-07 08:03:00,7.0,-10.0,-100.00,NNW,335,6.0,9.0,43,0.00,,,-99.99,,2013-02-07 13:03:00,
2013-02-07 08:12:00,8.0,-10.0,-100.00,NNW,335,6.0,11.0,43,0.00,,,-99.99,,2013-02-07 13:12:00,
2013-02-07 08:22:00,8.0,-10.0,-100.00,NNW,345,7.0,14.0,41,0.00,,,-99.99,,2013-02-07 13:22:00,
2013-02-07 08:32:00,8.0,-11.0,-100.00,NW,325,9.0,16.0,40,0.00,,,-99.99,,2013-02-07 13:32:00,
2013-02-07 08:42:00,9.0,-10.0,-100.00,NNW,340,6.0,15.0,40,0.00,,,-99.99,,2013-02-07 13:42:00,
2013-02-07 08:52:00,9.0,-11.0,-100.00,NNW,340,7.0,15.0,39,0.00,,,-99.99,,2013-02-07 13:52:00,
2013-02-07 09:01:00,9.0,-11.0,-100.00,NNW,330,6.0,13.0,38,0.00,,,-99.99,,2013-02-07 14:01:00,
2013-02-07 09:22:00,10.0,-11.0,-100.00,NNW,335,4.0,11.0,37,0.00,,,-99.99,,2013-02-07 14:22:00,
2013-02-07 09:32:00,11.0,-11.0,-100.00,NNW,345,4.0,9.0,35,0.00,,,-99.99,,2013-02-07 14:32:00,
2013-02-07 09:42:00,10.0,-11.0,-100.00,NNW,340,8.0,14.0,36,0.00,,,-99.99,,2013-02-07 14:42:00,
2013-02-07 09:52:00,11.0,-12.0,-100.00,NNW,345,6.0,11.0,34,0.00,,,-99.99,,2013-02-07 14:52:00,
2013-02-07 10:02:00,11.0,-12.0,-100.00,NW,320,10.0,24.0,33,0.00,,,-99.99,,2013-02-07 15:02:00,
2013-02-07 10:11:00,11.0,-14.0,-100.00,NNW,330,9.0,17.0,31,0.00,,,-99.99,,2013-02-07 15:11:00,
2013-02-07 10:22:00,12.0,-13.0,-100.00,NNW,340,11.0,18.0,31,0.00,,,-99.99,,2013-02-07 15:22:00,
2013-02-07 10:42:00,13.0,-14.0,-100.00,NNW,335,9.0,17.0,28,0.00,,,-99.99,,2013-02-07 15:42:00,
2013-02-07 10:52:00,13.0,-14.0,-100.00,NNW,340,8.0,15.0,28,0.00,,,-99.99,,2013-02-07 15:52:00,
2013-02-07 11:01:00,13.0,-13.0,-100.00,North,355,9.0,15.0,28,0.00,,,-99.99,,2013-02-07 16:01:00,
2013-02-07 11:11:00,14.0,-14.0,-100.00,North,0,6.0,15.0,26,0.00,,,-99.99,,2013-02-07 16:11:00,
2013-02-07 11:21:00,14.0,-12.0,-100.00,NNW,330,6.0,11.0,28,0.00,,,-99.99,,2013-02-07 16:21:00,
2013-02-07 11:32:00,14.0,-13.0,-100.00,NNW,340,6.0,12.0,27,0.00,,,-99.99,,2013-02-07 16:32:00,
2013-02-07 11:42:00,14.0,-14.0,-100.00,NNW,340,11.0,14.0,27,0.00,,,-99.99,,2013-02-07 16:42:00,
2013-02-07 11:52:00,15.0,-13.0,-100.00,NNW,335,4.0,12.0,26,0.00,,,-99.99,,2013-02-07 16:52:00,
2013-02-07 12:01:00,15.0,-13.0,-100.00,NNW,340,7.0,13.0,26,0.00,,,-99.99,,2013-02-07 17:01:00,
2013-02-07 12:11:00,15.0,-13.0,-100.00,WNW,290,4.0,12.0,26,0.00,,,-99.99,,2013-02-07 17:11:00,
2013-02-07 12:21:00,16.0,-13.0,-100.00,North,355,7.0,12.0,25,0.00,,,-99.99,,2013-02-07 17:21:00,
2013-02-07 12:32:00,15.0,-15.0,-100.00,NNW,340,9.0,15.0,24,0.00,,,-99.99,,2013-02-07 17:32:00,
2013-02-07 12:43:00,17.0,-14.0,-100.00,North,355,4.0,9.0,23,0.00,,,-99.99,,2013-02-07 17:43:00,
2013-02-07 12:52:00,16.0,-15.0,-100.00,NNW,345,5.0,12.0,23,0.00,,,-99.99,,2013-02-07 17:52:00,
2013-02-07 13:02:00,17.0,-15.0,-100.00,NW,320,4.0,15.0,23,0.00,,,-99.99,,2013-02-07 18:02:00,
2013-02-07 13:11:00,17.0,-14.0,-100.00,NNW,330,6.0,11.0,23,0.00,,,-99.99,,2013-02-07 18:11:00,
2013-02-07 13:23:00,17.0,-15.0,-100.00,NNW,330,6.0,12.0,21,0.00,,,-99.99,,2013-02-07 18:23:00,
2013-02-07 13:32:00,17.0,-15.0,-100.00,NNW,330,6.0,12.0,21,0.00,,,-99.99,,2013-02-07 18:32:00,
2013-02-07 13:42:00,17.0,-14.0,-100.00,NNW,340,7.0,11.0,23,0.00,,,-99.99,,2013-02-07 18:42:00,
2013-02-07 13:52:00,17.0,-14.0,-100.00,NNW,340,4.0,13.0,24,0.00,,,-99.99,,2013-02-07 18:52:00,
2013-02-07 14:01:00,17.0,-15.0,-100.00,NNW,340,3.0,11.0,22,0.00,,,-99.99,,2013-02-07 19:01:00,
2013-02-07 14:11:00,17.0,-14.0,-100.00,NNW,340,7.0,12.0,23,0.00,,,-99.99,,2013-02-07 19:11:00,
2013-02-07 14:22:00,18.0,-14.0,-100.00,NNW,340,9.0,13.0,22,0.00,,,-99.99,,2013-02-07 19:22:00,
2013-02-07 14:32:00,18.0,-14.0,-100.00,NW,320,2.0,11.0,22,0.00,,,-99.99,,2013-02-07 19:32:00,
2013-02-07 14:42:00,18.0,-14.0,-100.00,North,355,4.0,7.0,21,0.00,,,-99.99,,2013-02-07 19:42:00,
2013-02-07 14:52:00,18.0,-13.0,-100.00,NNW,330,3.0,9.0,22,0.00,,,-99.99,,2013-02-07 19:52:00,
2013-02-07 15:01:00,18.0,-13.0,-100.00,NW,305,2.0,7.0,23,0.00,,,-99.99,,2013-02-07 20:01:00,
2013-02-07 15:11:00,19.0,-14.0,-100.00,NNE,25,4.0,8.0,21,0.00,,,-99.99,,2013-02-07 20:11:00,
2013-02-07 15:22:00,18.0,-13.0,-100.00,NNW,340,4.0,11.0,23,0.00,,,-99.99,,2013-02-07 20:22:00,
2013-02-07 15:32:00,19.0,-12.0,-100.00,NNW,330,2.0,6.0,23,0.00,,,-99.99,,2013-02-07 20:32:00,
2013-02-07 15:42:00,19.0,-13.0,-100.00,NNW,340,8.0,12.0,22,0.00,,,-99.99,,2013-02-07 20:42:00,
2013-02-07 15:52:00,19.0,-14.0,-100.00,ENE,75,2.0,9.0,21,0.00,,,-99.99,,2013-02-07 20:52:00,
2013-02-07 16:02:00,20.0,-12.0,-100.00,NNE,25,3.0,7.0,23,0.00,,,-99.99,,2013-02-07 21:02:00,
2013-02-07 16:11:00,20.0,-13.0,-100.00,NNW,335,2.0,7.0,22,0.00,,,-99.99,,2013-02-07 21:11:00,
2013-02-07 16:21:00,20.0,-11.0,-100.00,NW,320,1.0,6.0,24,0.00,,,-99.99,,2013-02-07 21:21:00,
2013-02-07 16:32:00,19.0,-12.0,-100.00,NNW,340,7.0,9.0,23,0.00,,,-99.99,,2013-02-07 21:32:00,
2013-02-07 16:42:00,19.0,-12.0,-100.00,NNW,340,4.0,7.0,23,0.00,,,-99.99,,2013-02-07 21:42:00,
2013-02-07 16:52:00,19.0,-11.0,-100.00,NNW,330,2.0,7.0,24,0.00,,,-99.99,,2013-02-07 21:52:00,
2013-02-07 17:02:00,19.0,-11.0,-100.00,NNW,330,2.0,7.0,24,0.00,,,-99.99,,2013-02-07 22:02:00,
2013-02-07 17:11:00,19.0,-11.0,-100.00,NNW,340,4.0,6.0,25,0.00,,,-99.99,,2013-02-07 22:11:00,
2013-02-07 17:21:00,18.0,-11.0,-100.00,NW,325,1.0,4.0,26,0.00,,,-99.99,,2013-02-07 22:21:00,
2013-02-07 17:32:00,17.0,-9.0,-100.00,WSW,245,1.0,4.0,30,0.00,,,-99.99,,2013-02-07 22:32:00,
2013-02-07 17:42:00,17.0,-8.0,-100.00,North,-999,-999.0,-999.0,32,0.00,,,-99.99,,2013-02-07 22:42:00,
2013-02-07 17:51:00,16.0,-9.0,-100.00,NW,315,1.0,1.0,31,0.00,,,-99.99,,2013-02-07 22:51:00,
2013-02-07 18:01:00,16.0,-10.0,-100.00,West,280,1.0,2.0,30,0.00,,,-99.99,,2013-02-07 23:01:00,
2013-02-07 18:11:00,16.0,-10.0,-100.00,WNW,300,1.0,1.0,31,0.00,,,-99.99,,2013-02-07 23:11:00,
2013-02-07 18:21:00,16.0,-7.0,-100.00,North,355,0.0,2.0,36,0.00,,,-99.99,,2013-02-07 23:21:00,
2013-02-07 18:32:00,16.0,-5.0,-100.00,SSW,200,1.0,2.0,38,0.00,,,-99.99,,2013-02-07 23:32:00,
2013-02-07 18:42:00,16.0,-5.0,-100.00,North,-999,-999.0,-999.0,37,-99.99,,,-99.99,,2013-02-07 23:42:00,
2013-02-07 18:52:00,16.0,-6.0,-100.00,NNW,335,1.0,4.0,35,0.00,,,-99.99,,2013-02-07 23:52:00,
2013-02-07 19:02:00,17.0,-6.0,-100.00,WNW,300,1.0,3.0,35,0.00,,,-99.99,,2013-02-08 00:02:00,
2013-02-07 19:11:00,17.0,-5.0,-100.00,WNW,285,1.0,2.0,37,0.00,,,-99.99,,2013-02-08 00:11:00,
2013-02-07 19:21:00,17.0,-7.0,-100.00,WSW,255,0.0,2.0,33,0.00,,,-99.99,,2013-02-08 00:21:00,
2013-02-07 19:32:00,17.0,-9.0,-100.00,SE,125,0.0,1.0,30,0.00,,,-99.99,,2013-02-08 00:32:00,
2013-02-07 19:42:00,17.0,-8.0,-100.00,South,190,1.0,2.0,31,0.00,,,-99.99,,2013-02-08 00:42:00,
2013-02-07 19:52:00,17.0,-7.0,-100.00,SSE,165,2.0,2.0,33,0.00,,,-99.99,,2013-02-08 00:52:00,
2013-02-07 20:01:00,17.0,-7.0,-100.00,SSE,160,2.0,3.0,32,0.00,,,-99.99,,2013-02-08 01:01:00,
2013-02-07 20:11:00,17.0,-7.0,-100.00,SSE,160,2.0,3.0,33,0.00,,,-99.99,,2013-02-08 01:11:00,
2013-02-07 20:21:00,17.0,-7.0,-100.00,SE,140,1.0,3.0,33,0.00,,,-99.99,,2013-02-08 01:21:00,
2013-02-07 20:32:00,17.0,-7.0,-100.00,East,95,1.0,2.0,32,0.00,,,-99.99,,2013-02-08 01:32:00,
2013-02-07 20:41:00,17.0,-7.0,-100.00,East,95,1.0,2.0,32,0.00,,,-99.99,,2013-02-08 01:41:00,
2013-02-07 20:51:00,17.0,-8.0,-100.00,ESE,120,1.0,3.0,31,0.00,,,-99.99,,2013-02-08 01:51:00,
2013-02-07 21:01:00,17.0,-9.0,-100.00,SE,135,2.0,4.0,30,0.00,,,-99.99,,2013-02-08 02:01:00,
2013-02-07 21:11:00,17.0,-9.0,-100.00,ESE,105,1.0,4.0,30,0.00,,,-99.99,,2013-02-08 02:11:00,
2013-02-07 21:22:00,17.0,-9.0,-100.00,ENE,75,1.0,4.0,30,0.00,,,-99.99,,2013-02-08 02:22:00,
2013-02-07 21:32:00,17.0,-9.0,-100.00,East,95,2.0,3.0,29,0.00,,,-99.99,,2013-02-08 02:32:00,
2013-02-07 21:42:00,17.0,-10.0,-100.00,East,85,2.0,6.0,28,0.00,,,-99.99,,2013-02-08 02:42:00,
2013-02-07 21:52:00,17.0,-9.0,-100.00,ESE,115,2.0,6.0,30,0.00,,,-99.99,,2013-02-08 02:52:00,
2013-02-07 22:02:00,17.0,-10.0,-100.00,SE,145,2.0,6.0,28,0.00,,,-99.99,,2013-02-08 03:02:00,
2013-02-07 22:12:00,17.0,-10.0,-100.00,SE,135,2.0,4.0,28,0.00,,,-99.99,,2013-02-08 03:12:00,
2013-02-07 22:22:00,17.0,-10.0,-100.00,SE,125,2.0,6.0,28,0.00,,,-99.99,,2013-02-08 03:22:00,
2013-02-07 22:32:00,17.0,-10.0,-100.00,SE,135,3.0,5.0,28,0.00,,,-99.99,,2013-02-08 03:32:00,
2013-02-07 22:42:00,17.0,-10.0,-100.00,SSE,165,1.0,5.0,29,0.00,,,-99.99,,2013-02-08 03:42:00,
2013-02-07 22:52:00,17.0,-8.0,-100.00,East,90,2.0,6.0,31,0.00,,,-99.99,,2013-02-08 03:52:00,
2013-02-07 23:02:00,17.0,-8.0,-100.00,South,175,2.0,6.0,31,0.00,,,-99.99,,2013-02-08 04:02:00,
2013-02-07 23:11:00,17.0,-7.0,-100.00,East,100,2.0,6.0,33,0.00,,,-99.99,,2013-02-08 04:11:00,
2013-02-07 23:21:00,17.0,-7.0,-100.00,East,90,1.0,4.0,33,0.00,,,-99.99,,2013-02-08 04:21:00,
2013-02-07 23:42:00,17.0,-7.0,-100.00,East,95,2.0,3.0,32,0.00,,,-99.99,,2013-02-08 04:42:00,
2013-02-07 23:51:00,17.0,-7.0,-100.00,East,95,0.0,2.0,33,0.00,,,-99.99,,2013-02-08 04:51:00,